H1 CPF 2 NER 2025 10 26 9 299 01 glonass142 H2 2001801 9142 45358 2025 10 26 0 0 0 2025 10 29 23 45 0 900 1 1 0 0 0 1 H9 10 0 60974 0.00000 0 -3345420.205 -18375084.550 -17362788.340 10 0 60974 900.00000 0 -2950868.991 -20344575.404 -15095606.991 10 0 60974 1800.00000 0 -2752777.090 -22044698.245 -12535086.944 10 0 60974 2700.00000 0 -2715532.795 -23426365.562 -9731075.660 10 0 60974 3600.00000 0 -2795295.873 -24450560.451 -6738111.986 10 0 60974 4500.00000 0 -2942088.290 -25089862.057 -3614360.651 10 0 60974 5400.00000 0 -3102146.124 -25329501.771 -420479.194 10 0 60974 6300.00000 0 -3220432.299 -25167907.284 2781560.331 10 0 60974 7200.00000 0 -3243203.358 -24616713.112 5929671.734 10 0 60974 8100.00000 0 -3120521.575 -23700238.481 8962853.886 10 0 60974 9000.00000 0 -2808606.343 -22454455.621 11822365.747 10 0 60974 9900.00000 0 -2271925.837 -20925492.542 14452854.913 10 0 60974 10800.00000 0 -1484941.079 -19167733.446 16803418.622 10 0 60974 11700.00000 0 -433429.159 -17241596.258 18828577.672 10 0 60974 12600.00000 0 884670.002 -15211079.717 20489145.499 10 0 60974 13500.00000 0 2458919.245 -13141181.621 21752976.795 10 0 60974 14400.00000 0 4266576.923 -11095294.682 22595582.305 10 0 60974 15300.00000 0 6273309.944 -9132687.195 23000598.803 10 0 60974 16200.00000 0 8434398.962 -7306171.944 22960105.781 10 0 60974 17100.00000 0 10696387.440 -5660059.019 22474782.967 10 0 60974 18000.00000 0 12999107.969 -4228476.600 21553905.405 10 0 60974 18900.00000 0 15278003.654 -3034128.749 20215175.536 10 0 60974 19800.00000 0 17466649.915 -2087541.392 18484394.541 10 0 60974 20700.00000 0 19499373.347 -1386827.769 16394977.940 10 0 60974 21600.00000 0 21313859.703 -917983.204 13987323.377 10 0 60974 22500.00000 0 22853642.913 -655697.078 11308041.302 10 0 60974 23400.00000 0 24070371.239 -564648.292 8409062.148 10 0 60974 24300.00000 0 24925755.369 -601230.014 5346636.211 10 0 60974 25200.00000 0 25393115.965 -715631.122 2180244.958 10 0 60974 26100.00000 0 25458464.582 -854186.329 -1028555.330 10 0 60974 27000.00000 0 25121071.241 -961895.043 -4217334.882 10 0 60974 27900.00000 0 24393493.519 -985001.486 -7324012.775 10 0 60974 28800.00000 0 23301064.834 -873525.455 -10288075.501 10 0 60974 29700.00000 0 21880862.660 -583634.934 -13051766.893 10 0 60974 30600.00000 0 20180199.644 -79758.259 -15561224.999 10 0 60974 31500.00000 0 18254701.062 663655.470 -17767542.530 10 0 60974 32400.00000 0 16166049.705 1660804.039 -19627729.191 10 0 60974 33300.00000 0 13979493.427 2913685.813 -21105556.362 10 0 60974 34200.00000 0 11761220.632 4411776.655 -22172267.132 10 0 60974 35100.00000 0 9575714.310 6132244.829 -22807137.648 10 0 60974 36000.00000 0 7483195.921 8040695.743 -22997878.917 10 0 60974 36900.00000 0 5537266.283 10092415.744 -22740871.487 10 0 60974 37800.00000 0 3782841.938 12234063.100 -22041228.929 10 0 60974 38700.00000 0 2254472.608 14405735.322 -20912689.429 10 0 60974 39600.00000 0 975109.049 16543326.173 -19377338.253 10 0 60974 40500.00000 0 -44628.717 18581073.557 -17465167.143 10 0 60974 41400.00000 0 -806654.046 20454191.549 -15213479.873 10 0 60974 42300.00000 0 -1325080.855 22101476.374 -12666156.220 10 0 60974 43200.00000 0 -1625371.596 23467777.429 -9872789.283 10 0 60974 44100.00000 0 -1743004.130 24506230.248 -6887713.551 10 0 60974 45000.00000 0 -1721715.679 25180158.472 -3768943.189 10 0 60974 45900.00000 0 -1611399.738 25464565.957 -577041.692 10 0 60974 46800.00000 0 -1465746.072 25347157.515 2626054.788 10 0 60974 47700.00000 0 -1339724.461 24828846.583 5778237.340 10 0 60974 48600.00000 0 -1287019.031 23923729.694 8818424.117 10 0 60974 49500.00000 0 -1357521.672 22658529.815 11687737.088 10 0 60974 50400.00000 0 -1594990.243 21071532.636 14330633.350 10 0 60974 51300.00000 0 -2034969.993 19211060.801 16695969.883 10 0 60974 52200.00000 0 -2703065.418 17133549.860 18737982.115 10 0 60974 53100.00000 0 -3613635.051 14901305.941 20417158.449 10 0 60974 54000.00000 0 -4768964.009 12580037.830 21700995.040 10 0 60974 54900.00000 0 -6158949.429 10236265.105 22564617.345 10 0 60974 55800.00000 0 -7761312.784 7934708.790 22991257.324 10 0 60974 56700.00000 0 -9542331.474 5735771.479 22972577.717 10 0 60974 57600.00000 0 -11458060.805 3693210.121 22508837.384 10 0 60974 58500.00000 0 -13455997.298 1852096.808 21608894.313 10 0 60974 59400.00000 0 -15477116.017 247151.190 20290045.615 10 0 60974 60300.00000 0 -17458198.990 -1098486.970 18577706.617 10 0 60974 61200.00000 0 -19334359.381 -2173994.425 16504933.922 10 0 60974 62100.00000 0 -21041657.460 -2981079.747 14111800.226 10 0 60974 63000.00000 0 -22519699.993 -3533668.258 11444631.451 10 0 60974 63900.00000 0 -23714114.633 -3857069.575 8555119.658 10 0 60974 64800.00000 0 -24578795.438 -3986662.513 5499327.821 10 0 60974 65700.00000 0 -25077824.555 -3966152.588 2336605.038 10 0 60974 66600.00000 0 -25186988.203 -3845475.674 -871566.969 10 0 60974 67500.00000 0 -24894821.761 -3678436.769 -4062773.500 10 0 60974 68400.00000 0 -24203138.482 -3520184.482 -7174888.735 10 0 60974 69300.00000 0 -23127018.117 -3424629.270 -10147295.040 10 0 60974 70200.00000 0 -21694254.694 -3441916.156 -12922074.856 10 0 60974 71100.00000 0 -19944285.809 -3616060.634 -15445150.698 10 0 60974 72000.00000 0 -17926647.946 -3982849.599 -17667349.835 10 0 60974 72900.00000 0 -15699022.610 -4568097.855 -19545371.869 10 0 60974 73800.00000 0 -13324955.465 -5386335.572 -21042639.564 10 0 60974 74700.00000 0 -10871344.555 -6439983.487 -22130015.812 10 0 60974 75600.00000 0 -8405803.256 -7719051.828 -22786372.553 10 0 60974 76500.00000 0 -5994008.720 -9201376.450 -22999000.618 10 0 60974 77400.00000 0 -3697146.908 -10853382.797 -22763852.788 10 0 60974 78300.00000 0 -1569560.846 -12631345.824 -22085615.765 10 0 60974 79200.00000 0 343300.151 -14483093.005 -20977610.239 10 0 60974 80100.00000 0 2006545.545 -16350078.780 -19461521.580 10 0 60974 81000.00000 0 3397054.693 -18169743.223 -17566967.096 10 0 60974 81900.00000 0 4504185.194 -19878055.725 -15330908.891 10 0 60974 82800.00000 0 5329950.863 -21412136.835 -12796924.444 10 0 60974 83700.00000 0 5888664.191 -22712848.215 -10014349.726 10 0 60974 84600.00000 0 6206060.708 -23727242.187 -7037312.122 10 0 60974 85500.00000 0 6317944.359 -24410768.378 -3923672.567 10 0 60975 0.00000 0 6268413.041 -24729145.405 -733898.249 10 0 60975 900.00000 0 6107740.810 -24659819.838 2470113.580 10 0 60975 1800.00000 0 5890007.552 -24192951.725 5626233.259 10 0 60975 2700.00000 0 5670576.939 -23331886.800 8673300.316 10 0 60975 3600.00000 0 5503529.596 -22093095.876 11552301.640 10 0 60975 4500.00000 0 5439159.843 -20505584.857 14207505.546 10 0 60975 5400.00000 0 5521641.303 -18609800.412 16587530.265 10 0 60975 6300.00000 0 5786959.295 -16456077.046 18646327.117 10 0 60975 7200.00000 0 6261196.612 -14102690.017 20344060.480 10 0 60975 8100.00000 0 6959244.411 -11613594.484 21647868.691 10 0 60975 9000.00000 0 7883992.348 -9055943.787 22532492.334 10 0 60975 9900.00000 0 9026032.245 -6497488.639 22980758.671 10 0 60975 10800.00000 0 10363888.550 -4003963.630 22983913.514 10 0 60975 11700.00000 0 11864767.187 -1636567.851 22541794.409 10 0 60975 12600.00000 0 13485793.101 550357.331 21662841.595 10 0 60975 13500.00000 0 15175686.660 2511358.292 20363945.948 10 0 60975 14400.00000 0 16876810.811 4211523.717 18670135.837 10 0 60975 15300.00000 0 18527505.268 5627695.579 16614107.675 10 0 60975 16200.00000 0 20064611.654 6749186.479 14235607.752 10 0 60975 17100.00000 0 21426085.068 7577973.517 11580675.827 10 0 60975 18000.00000 0 22553583.177 8128360.453 8700763.763 10 0 60975 18900.00000 0 23394924.235 8426122.161 5651745.185 10 0 60975 19800.00000 0 23906310.194 8507167.162 2492834.619 10 0 60975 20700.00000 0 24054220.328 8415774.553 -714563.140 10 0 60975 21600.00000 0 23816894.238 8202479.988 -3908050.940 10 0 60975 22500.00000 0 23185340.102 7921700.565 -7025460.572 10 0 60975 23400.00000 0 22163823.994 7629200.020 -10006072.756 10 0 60975 24300.00000 0 20769818.078 7379502.695 -12791810.909 10 0 60975 25200.00000 0 19033408.525 7223367.241 -15328384.220 10 0 60975 26100.00000 0 16996187.099 7205428.566 -17566356.534 10 0 60975 27000.00000 0 14709672.409 7362109.441 -19462119.172 10 0 60975 27900.00000 0 12233326.834 7719891.569 -20978747.917 10 0 60975 28800.00000 0 9632252.393 8294020.508 -22086726.911 10 0 60975 29700.00000 0 6974662.225 9087700.142 -22764525.139 10 0 60975 30600.00000 0 4329233.748 10091811.455 -22999014.295 10 0 60975 31500.00000 0 1762454.307 11285167.853 -22785720.143 10 0 60975 32400.00000 0 -663929.877 12635296.454 -22128902.940 10 0 60975 33300.00000 0 -2895255.334 14099712.390 -21041465.896 10 0 60975 34200.00000 0 -4885976.495 15627632.249 -19544694.073 10 0 60975 35100.00000 0 -6601310.582 17162054.258 -17667829.473 10 0 60975 36000.00000 0 -8018425.054 18642117.395 -15447491.213 10 0 60975 36900.00000 0 -9127119.893 20005639.855 -12926952.749 10 0 60975 37800.00000 0 -9929978.336 21191729.953 -10155290.830 10 0 60975 38700.00000 0 -10441982.135 22143359.569 -7186423.341 10 0 60975 39600.00000 0 -10689609.860 22809791.989 -4078055.355 10 0 60975 40500.00000 0 -10709458.441 23148762.375 -890554.362 10 0 60975 41400.00000 0 -10546447.997 23128319.621 2314223.063 10 0 60975 42300.00000 0 -10251687.244 22728252.787 5474130.073 10 0 60975 43200.00000 0 -9880090.659 21941042.874 8527930.573 10 0 60975 44100.00000 0 -9487848.647 20772300.624 11416479.332 10 0 60975 45000.00000 0 -9129857.620 19240672.514 14083858.759 10 0 60975 45900.00000 0 -8857218.180 17377219.185 16478451.065 10 0 60975 46800.00000 0 -8714906.338 15224292.245 18553926.026 10 0 60975 47700.00000 0 -8739715.201 12833955.957 20270126.315 10 0 60975 48600.00000 0 -8958553.052 10266018.778 21593834.508 10 0 60975 49500.00000 0 -9387168.904 7585755.491 22499408.048 10 0 60975 50400.00000 0 -10029358.857 4861413.124 22969270.848 10 0 60975 51300.00000 0 -10876686.845 2161602.499 22994252.708 10 0 60975 52200.00000 0 -11908732.148 -447318.167 22573770.283 10 0 60975 53100.00000 0 -13093854.534 -2903760.794 21715845.961 10 0 60975 54000.00000 0 -14390446.437 -5153223.229 20436963.716 10 0 60975 54900.00000 0 -15748621.548 -7150308.455 18761763.730 10 0 60975 55800.00000 0 -17112270.798 -8860364.198 16722580.432 10 0 60975 56700.00000 0 -18421401.249 -10260675.263 14358831.428 10 0 60975 57600.00000 0 -19614661.065 -11341159.130 11716267.588 10 0 60975 58500.00000 0 -20631945.394 -12104535.644 8846097.510 10 0 60975 59400.00000 0 -21416973.900 -12565963.544 5804002.157 10 0 60975 60300.00000 0 -21919731.170 -12752158.822 2649058.016 10 0 60975 61200.00000 0 -22098666.318 -12700031.861 -557410.578 10 0 60975 62100.00000 0 -21922557.730 -12454900.821 -3753027.537 10 0 60975 63000.00000 0 -21371962.637 -12068357.073 -6875585.727 10 0 60975 63900.00000 0 -20440188.501 -11595873.496 -9864267.555 10 0 60975 64800.00000 0 -19133743.457 -11094257.813 -12660840.572 10 0 60975 65700.00000 0 -17472245.126 -10619059.920 -15210803.570 10 0 60975 66600.00000 0 -15487790.254 -10222044.339 -17464459.585 10 0 60975 67500.00000 0 -13223810.675 -9948836.147 -19377893.859 10 0 60975 68400.00000 0 -10733462.959 -9836841.297 -20913836.902 10 0 60975 69300.00000 0 -8077619.002 -9913530.412 -22042395.248 10 0 60975 70200.00000 0 -5322541.635 -10195159.439 -22741635.444 10 0 60975 71100.00000 0 -2537342.553 -10685981.762 -22998009.923 10 0 60975 72000.00000 0 208671.087 -11377985.286 -22806616.715 10 0 60975 72900.00000 0 2848650.654 -12251165.553 -22171288.367 10 0 60975 73800.00000 0 5320750.094 -13274323.122 -21104508.881 10 0 60975 74700.00000 0 7570454.416 -14406351.135 -19627160.897 10 0 60975 75600.00000 0 9552596.352 -15597958.311 -17768108.686 10 0 60975 76500.00000 0 11232978.306 -16793754.143 -15563625.702 10 0 60975 77400.00000 0 12589533.405 -17934607.935 -13056678.498 10 0 60975 78300.00000 0 13612979.130 -18960181.791 -10296081.575 10 0 60975 79200.00000 0 14306938.319 -19811530.531 -7335540.192 10 0 60975 80100.00000 0 14687524.813 -20433658.838 -4232600.377 10 0 60975 81000.00000 0 14782413.440 -20777927.948 -1047527.057 10 0 60975 81900.00000 0 14629435.608 -20804210.762 2157867.501 10 0 60975 82800.00000 0 14274761.457 -20482705.030 5321421.880 10 0 60975 83700.00000 0 13770746.579 -19795328.827 8381827.014 10 0 60975 84600.00000 0 13173535.028 -18736640.130 11279807.915 10 0 60975 85500.00000 0 12540520.071 -17314242.336 13959263.104 10 0 60976 0.00000 0 11927769.719 -15548659.086 16368340.230 10 0 60976 900.00000 0 11387524.687 -13472682.562 18460429.224 10 0 60976 1800.00000 0 10965874.208 -11130224.482 20195051.718 10 0 60976 2700.00000 0 10700705.482 -8574713.782 21538635.024 10 0 60976 3600.00000 0 10620012.930 -5867108.726 22465153.574 10 0 60976 4500.00000 0 10740637.305 -3073603.719 22956627.707 10 0 60976 5400.00000 0 11067487.318 -263124.383 23003470.656 10 0 60976 6300.00000 0 11593276.566 2495287.102 22604677.340 10 0 60976 7200.00000 0 12298787.383 5135089.811 21767851.188 10 0 60976 8100.00000 0 13153651.573 7594758.236 20509067.937 10 0 60976 9000.00000 0 14117616.652 9820089.941 18852578.064 10 0 60976 9900.00000 0 15142245.993 11766211.966 16830352.346 10 0 60976 10800.00000 0 16172983.055 13399203.223 14481477.876 10 0 60976 11700.00000 0 17151494.335 14697265.656 11851414.690 10 0 60976 12600.00000 0 18018193.466 15651395.210 8991126.045 10 0 60976 13500.00000 0 18714840.732 16265524.338 5956098.051 10 0 60976 14400.00000 0 19187108.378 16556129.704 2805266.867 10 0 60976 15300.00000 0 19387002.873 16551321.263 -400125.987 10 0 60976 16200.00000 0 19275040.705 16289450.883 -3597727.863 10 0 60976 17100.00000 0 18822084.269 15817299.277 -6725295.027 10 0 60976 18000.00000 0 18010758.444 15187918.167 -9721913.803 10 0 60976 18900.00000 0 16836386.083 14458219.583 -12529197.955 10 0 60976 19800.00000 0 15307401.031 13686415.177 -15092437.762 10 0 60976 20700.00000 0 13445219.549 12929415.034 -17361677.133 10 0 60976 21600.00000 0 11283574.119 12240297.205 -19292696.735 10 0 60976 22500.00000 0 8867336.579 11665956.143 -20847883.133 10 0 60976 23400.00000 0 6250879.283 11245030.445 -21996966.422 10 0 60976 24300.00000 0 3496042.564 11006198.190 -22717611.732 10 0 60976 25200.00000 0 669793.404 10966912.298 -22995853.080 10 0 60976 26100.00000 0 -2158326.849 11132629.361 -22826361.368 10 0 60976 27000.00000 0 -4918859.187 11496564.273 -22212541.741 10 0 60976 27900.00000 0 -7545077.353 12039980.486 -21166458.937 10 0 60976 28800.00000 0 -9975521.743 12733002.958 -19708592.703 10 0 60976 29700.00000 0 -12156311.709 13535918.649 -17867428.678 10 0 60976 30600.00000 0 -14043140.821 14400908.845 -15678893.342 10 0 60976 31500.00000 0 -15602872.998 15274139.369 -13185644.674 10 0 60976 32400.00000 0 -16814674.534 16098119.719 -10436232.957 10 0 60976 33300.00000 0 -17670636.541 16814230.998 -7484148.624 10 0 60976 34200.00000 0 -18175863.880 17365315.516 -4386776.307 10 0 60976 35100.00000 0 -18348029.043 17698218.588 -1204275.896 10 0 60976 36000.00000 0 -18216411.876 17766175.297 2001587.207 10 0 60976 36900.00000 0 -17820467.448 17530941.769 5168639.618 10 0 60976 37800.00000 0 -17207983.945 16964581.472 8235501.957 10 0 60976 38700.00000 0 -16432909.307 16050831.704 11142772.153 10 0 60976 39600.00000 0 -15552938.789 14785993.168 13834167.513 10 0 60976 40500.00000 0 -14626965.162 13179305.461 16257604.142 10 0 60976 41400.00000 0 -13712498.523 11252792.657 18366193.781 10 0 60976 42300.00000 0 -12863163.519 9040585.043 20119139.832 10 0 60976 43200.00000 0 -12126378.183 6587744.539 21482516.480 10 0 60976 44100.00000 0 -11541310.782 3948641.518 22429916.984 10 0 60976 45000.00000 0 -11137199.408 1184949.049 22942959.607 10 0 60976 45900.00000 0 -10932104.002 -1636663.951 23011642.110 10 0 60976 46800.00000 0 -10932142.712 -4447046.926 22634538.326 10 0 60976 47700.00000 0 -11131244.572 -7177186.934 21818832.894 10 0 60976 48600.00000 0 -11511429.333 -9760826.240 20580192.985 10 0 60976 49500.00000 0 -12043603.543 -12136971.284 18942478.524 10 0 60976 50400.00000 0 -12688840.601 -14252190.094 16937295.290 10 0 60976 51300.00000 0 -13400092.291 -16062603.506 14603398.051 10 0 60976 52200.00000 0 -14124261.071 -17535487.706 11985953.778 10 0 60976 53100.00000 0 -14804546.898 -18650421.213 9135677.809 10 0 60976 54000.00000 0 -15382970.329 -19399928.123 6107858.546 10 0 60976 54900.00000 0 -15802965.605 -19789590.165 2961288.766 10 0 60976 55800.00000 0 -16011933.800 -19837622.358 -242876.016 10 0 60976 56700.00000 0 -15963647.224 -19573929.689 -3442309.871 10 0 60976 57600.00000 0 -15620401.979 -19038684.350 -6574735.779 10 0 60976 58500.00000 0 -14954825.910 -18280483.584 -9579147.293 10 0 60976 59400.00000 0 -13951263.519 -17354166.351 -12397007.645 10 0 60976 60300.00000 0 -12606677.323 -16318381.700 -14973401.731 10 0 60976 61200.00000 0 -10931025.658 -15233012.526 -17258117.257 10 0 60976 62100.00000 0 -8947099.329 -14156564.639 -19206632.924 10 0 60976 63000.00000 0 -6689822.549 -13143632.427 -20780993.556 10 0 60976 63900.00000 0 -4205046.507 -12242549.098 -21950554.517 10 0 60976 64800.00000 0 -1547885.462 -11493321.314 -22692580.660 10 0 60976 65700.00000 0 1219335.392 -10925935.696 -22992688.130 10 0 60976 66600.00000 0 4029434.641 -10559108.627 -22845120.672 10 0 60976 67500.00000 0 6812933.701 -10399531.665 -22252855.450 10 0 60976 68400.00000 0 9500713.477 -10441643.670 -21227536.867 10 0 60976 69300.00000 0 12026657.999 -10667938.285 -19789240.272 10 0 60976 70200.00000 0 14330175.116 -11049792.656 -17966070.770 10 0 60976 71100.00000 0 16358489.784 -11548781.210 -15793605.600 10 0 60976 72000.00000 0 18068615.121 -12118417.808 -13314191.552 10 0 60976 72900.00000 0 19428920.199 -12706251.626 -10576111.751 10 0 60976 73800.00000 0 20420230.592 -13256227.261 -7632638.588 10 0 60976 74700.00000 0 21036417.418 -13711208.625 -4540991.850 10 0 60976 75600.00000 0 21284452.204 -14015559.491 -1361222.821 10 0 60976 76500.00000 0 21183927.259 -14117671.445 1844953.556 10 0 60976 77400.00000 0 20766063.661 -13972332.456 5015355.420 10 0 60976 78300.00000 0 20072250.194 -13542836.312 8088536.345 10 0 60976 79200.00000 0 19152176.014 -12802744.228 11004970.122 10 0 60976 80100.00000 0 18061636.423 -11737224.764 13708195.383 10 0 60976 81000.00000 0 16860104.354 -10343915.879 16145898.591 10 0 60976 81900.00000 0 15608169.469 -8633272.915 18270915.360 10 0 60976 82800.00000 0 14364951.825 -6628387.600 20042131.812 10 0 60976 83700.00000 0 13185597.671 -4364284.906 21425269.730 10 0 60976 84600.00000 0 12118961.198 -1886725.972 22393541.520 10 0 60976 85500.00000 0 11205568.158 749434.517 22928163.275 10 0 60977 0.00000 0 10475945.536 3482269.798 23018716.836 10 0 60977 900.00000 0 9949385.972 6245100.871 22663354.149 10 0 60977 1800.00000 0 9633199.047 8969016.848 21868839.889 10 0 60977 2700.00000 0 9522479.376 11585498.134 20650431.218 10 0 60977 3600.00000 0 9600402.533 14029031.744 19031595.809 10 0 60977 4500.00000 0 9839036.618 16239613.017 17043572.510 10 0 60977 5400.00000 0 10200636.371 18165030.493 14724781.638 10 0 60977 6300.00000 0 10639366.405 19762839.370 12120094.808 10 0 60977 7200.00000 0 11103381.918 21001941.266 9279977.004 10 0 60977 8100.00000 0 11537179.834 21863703.992 6259516.369 10 0 60977 9000.00000 0 11884121.417 22342573.859 3117359.666 10 0 60977 9900.00000 0 12089019.541 22446154.113 -85426.255 10 0 60977 10800.00000 0 12100680.493 22194745.521 -3286544.812 10 0 60977 11700.00000 0 11874291.547 21620367.909 -6423688.232 10 0 60977 12600.00000 0 11373551.646 20765303.607 -9435759.657 10 0 60977 13500.00000 0 10572453.118 19680224.295 -12264073.930 10 0 60977 14400.00000 0 9456637.046 18421980.627 -14853512.460 10 0 60977 15300.00000 0 8024262.983 17051148.630 -17153608.387 10 0 60977 16200.00000 0 6286354.397 15629437.209 -19119539.845 10 0 60977 17100.00000 0 4266603.674 14217067.072 -20713011.102 10 0 60977 18000.00000 0 2000643.528 12870232.432 -21903003.781 10 0 60977 18900.00000 0 -465185.549 11638753.113 -22666383.258 10 0 60977 19800.00000 0 -3075520.792 10564016.291 -22988348.405 10 0 60977 20700.00000 0 -5768045.434 9677294.529 -22862716.147 10 0 60977 21600.00000 0 -8475853.445 8998510.470 -22292035.694 10 0 60977 22500.00000 0 -11130012.099 8535499.365 -21287530.777 10 0 60977 23400.00000 0 -13662215.431 8283799.350 -19868871.596 10 0 60977 24300.00000 0 -16007418.080 8226976.884 -18063781.566 10 0 60977 25200.00000 0 -18106339.981 8337472.094 -15907487.143 10 0 60977 26100.00000 0 -19907737.911 8577926.792 -13442022.074 10 0 60977 27000.00000 0 -21370349.934 8902937.577 -10715400.236 10 0 60977 27900.00000 0 -22464432.619 9261158.636 -7780673.719 10 0 60977 28800.00000 0 -23172828.166 9597664.264 -4694895.124 10 0 60977 29700.00000 0 -23491518.380 9856470.353 -1518004.722 10 0 60977 30600.00000 0 -23429644.085 9983107.728 1688335.435 10 0 60977 31500.00000 0 -23008990.904 9927138.278 4861937.471 10 0 60977 32400.00000 0 -22262964.648 9644507.566 7941290.399 10 0 60977 33300.00000 0 -21235100.733 9099634.785 10866746.372 10 0 60977 34200.00000 0 -19977171.205 8267152.173 13581667.845 10 0 60977 35100.00000 0 -18546969.379 7133220.879 16033514.080 10 0 60977 36000.00000 0 -17005865.087 5696368.025 18174846.908 10 0 60977 36900.00000 0 -15416232.581 3967809.651 19964237.334 10 0 60977 37800.00000 0 -13838857.997 1971245.457 21367056.668 10 0 60977 38700.00000 0 -12330433.664 -257867.056 22356138.077 10 0 60977 39600.00000 0 -10941242.756 -2673530.141 22912296.770 10 0 60977 40500.00000 0 -9713129.680 -5220866.069 23024699.534 10 0 60977 41400.00000 0 -8677839.778 -7838153.127 22691076.885 10 0 60977 42300.00000 0 -7855796.768 -10459154.811 21917773.680 10 0 60977 43200.00000 0 -7255368.440 -13015647.646 20719636.731 10 0 60977 44100.00000 0 -6872651.089 -15440044.578 19119740.711 10 0 60977 45000.00000 0 -6691781.913 -17668006.514 17148956.376 10 0 60977 45900.00000 0 -6685766.729 -19640934.566 14845368.057 10 0 60977 46800.00000 0 -6817788.927 -21308239.905 12253550.115 10 0 60977 47700.00000 0 -7042945.287 -22629296.656 9423714.992 10 0 60977 48600.00000 0 -7310336.129 -23574995.969 6410748.136 10 0 60977 49500.00000 0 -7565421.872 -24128835.535 3273147.672 10 0 60977 50400.00000 0 -7752546.389 -24287497.955 71889.013 10 0 60977 51300.00000 0 -7817519.850 -24060892.737 -3130763.487 10 0 60977 52200.00000 0 -7710150.754 -23471659.270 -6272474.265 10 0 60977 53100.00000 0 -7386618.456 -22554151.058 -9292059.077 10 0 60977 54000.00000 0 -6811584.006 -21352943.697 -12130687.423 10 0 60977 54900.00000 0 -5959947.948 -19920929.461 -14733040.227 10 0 60977 55800.00000 0 -4818178.732 -18317079.212 -17048398.961 10 0 60977 56700.00000 0 -3385153.618 -16603966.517 -19031643.877 10 0 60977 57600.00000 0 -1672474.856 -14845159.055 -20644141.066 10 0 60977 58500.00000 0 295753.718 -13102587.869 -21854500.397 10 0 60977 59400.00000 0 2483681.422 -11434005.823 -22639189.290 10 0 60977 60300.00000 0 4844966.009 -9890642.456 -22982990.363 10 0 60977 61200.00000 0 7324477.384 -8515153.887 -22879294.234 10 0 60977 62100.00000 0 9860378.736 -7339953.471 -22330222.182 10 0 60977 63000.00000 0 12386498.202 -6385992.562 -21346576.825 10 0 60977 63900.00000 0 14834891.950 -5662041.397 -19947622.332 10 0 60977 64800.00000 0 17138491.678 -5164498.825 -18160699.127 10 0 60977 65700.00000 0 19233726.111 -4877737.086 -16020681.158 10 0 60977 66600.00000 0 21063007.237 -4774965.247 -13569286.973 10 0 60977 67500.00000 0 22576977.936 -4819573.032 -10854258.616 10 0 60977 68400.00000 0 23736427.810 -4966896.533 -7928424.901 10 0 60977 69300.00000 0 24513798.067 -5166329.726 -4848667.918 10 0 60977 70200.00000 0 24894213.752 -5363691.266 -1674813.363 10 0 60977 71100.00000 0 24876001.525 -5503745.620 1531533.289 10 0 60977 72000.00000 0 24470672.811 -5532771.313 4708181.821 10 0 60977 72900.00000 0 23702374.522 -5401067.531 7793560.203 10 0 60977 73800.00000 0 22606831.730 -5065293.170 10727902.207 10 0 60977 74700.00000 0 21229827.658 -4490539.814 13454397.006 10 0 60977 75600.00000 0 19625285.366 -3652051.505 15920279.149 10 0 60977 76500.00000 0 17853031.655 -2536519.114 18077838.739 10 0 60977 77400.00000 0 15976336.523 -1142894.887 19885333.281 10 0 60977 78300.00000 0 14059330.303 517307.294 21307784.815 10 0 60977 79200.00000 0 12164405.268 2420239.263 22317648.063 10 0 60977 80100.00000 0 10349708.829 4530465.150 22895337.745 10 0 60977 81000.00000 0 8666831.391 6802197.628 23029605.607 10 0 60977 81900.00000 0 7158783.854 9180974.193 22717760.357 10 0 60977 82800.00000 0 5858347.820 11605705.839 21965726.204 10 0 60977 83700.00000 0 4786866.367 14011015.040 20787938.440 10 0 60977 84600.00000 0 3953525.224 16329767.913 19207077.178 10 0 60977 85500.00000 0 3355154.155 18495696.933 17253643.210 99